Find Qianfan Xingzuo 03-05

NORAD ID: 62242 Int'l Des: 2024-232 Owner: YUANX Country: CN Constellation: spacesail operational
LEOCIRCULARPOLAR

現在のビュー

3D地球を読み込み中...

Qianfan Xingzuo 03-05について

説明を読み込み中...

次回通過

Passes for default location (London). Set your location on the main map for personalized predictions.

高度履歴

Loading altitude history...

軌道要素

1 62242U 24232F 26159.14381238 .00000071 00000-0 91280-4 0 9994
2 62242 89.0085 23.3692 0015484 44.1198 316.1185 13.51008542123204
Epoch: Jun 8, 2026 • Age: 5 hours

現在のステータス

高度 1095.9 km
速度 7.30 km/s
衛星直下点 -62.86°S, 2.43°W
打ち上げ日 Dec 5, 2024
運用期間 1.5 years
タイプ internet

技術仕様

分類 Payload
質量 267.00 kg
乾燥質量 267.00 kg
総質量 267.00 kg
長さ 0.30 m
直径 3.00 m
スパン 10.00 m
形状 Box+pan
製造者 SECM
バスタイプ Qianfan
フェーズステータス In Orbit
所有者/国 YUANX/CN

Most Searched